Marshalltown, IA

8:21 AM CDT on July 20, 2017 (GMT -0500)
Marshalltown Municipal

Weather History for KMIW - April, 2013

Change the Weather History Date:

Wednesday, April 24, 2013

  Actual Average Record
Temperature  
Mean Temperature 40 °F 52 °F  
Max Temperature 53 °F 64 °F 80 °F (2012)
Min Temperature 26 °F 40 °F 26 °F (2013)
Degree Days  
Heating Degree Days 25 13  
Month to date heating degree days 558 412  
Since 1 July heating degree days 6704 6713  
Cooling Degree Days 0 0  
Month to date cooling degree days 0 0  
Year to date cooling degree days 0 0  
Moisture  
Dew Point 29 °F    
Average Humidity 62    
Maximum Humidity 92    
Minimum Humidity 32    
Precipitation  
Precipitation 0.03 in 0.15 in 1.64 in (2007)
Month to date precipitation 5.88 2.49  
Sea Level Pressure  
Sea Level Pressure 30.10 in    
Wind  
Wind Speed 12 mph (West)    
Max Wind Speed 31 mph    
Max Gust Speed 43 mph    
Visibility 10 miles    
Events Rain    
T = Trace of Precipitation, MM = Missing Value Source: NWS Daily Summary

Daily Weather History Graph

Daily Weather History Graph

Search for Another Location

Airport or City:

Trip Planner

Search our weather history database for the weather conditions in past years. The results will help you decide how hot, cold, wet, or windy it might be!

Date:

Astronomy

Apr. 24, 2013 Rise Set
Actual Time 6:16 AM CDT 8:03 PM CDT
Civil Twilight 5:47 AM CDT 8:33 PM CDT
Nautical Twilight 5:10 AM CDT 9:09 PM CDT
Astronomical Twilight 4:31 AM CDT 9:48 PM CDT
Moon 7:06 PM CDT (4/24) 5:22 AM CDT (4/24)
Length of Visible Light 14h 46m
Length of Day
13h 46m
Waxing Gibbous, 98% of the Moon is Illuminated
Apr 24
Waxing Gibbous
Apr 25
Full
May 2
Last Quarter
May 9
New
May 17
First Quarter

Hourly Weather History & Observations

Time (CDT) Temp. Windchill Dew Point Humidity Pressure Visibility Wind Dir Wind Speed Gust Speed Precip Events Conditions
12:53 AM 30.9 °F 22.8 °F 27.0 °F 85% 30.13 in 10.0 mi WNW 9.2 mph - N/A   Clear
1:53 AM 30.0 °F 20.5 °F 26.1 °F 85% 30.14 in 10.0 mi WNW 11.5 mph - N/A   Clear
2:53 AM 30.0 °F 21.1 °F 26.1 °F 85% 30.12 in 10.0 mi NW 10.4 mph - N/A   Clear
3:53 AM 28.9 °F 19.8 °F 25.0 °F 85% 30.12 in 10.0 mi NW 10.4 mph - N/A   Clear
5:53 AM 26.1 °F 19.4 °F 24.1 °F 92% 30.13 in 10.0 mi WNW 5.8 mph - N/A   Clear
6:53 AM 27.0 °F 21.6 °F 24.1 °F 89% 30.14 in 10.0 mi WNW 4.6 mph - N/A   Clear
7:53 AM 30.0 °F 24.1 °F 25.0 °F 82% 30.16 in 10.0 mi West 5.8 mph - N/A   Clear
8:53 AM 34.0 °F 27.2 °F 26.1 °F 73% 30.16 in 10.0 mi West 8.1 mph - N/A   Clear
9:53 AM 37.0 °F 29.8 °F 28.0 °F 70% 30.14 in 10.0 mi SW 10.4 mph - N/A   Clear
10:53 AM 41.0 °F 33.9 °F 30.9 °F 67% 30.14 in 10.0 mi WSW 12.7 mph - N/A   Clear
11:53 AM 45.0 °F 39.7 °F 30.9 °F 58% 30.14 in 10.0 mi West 10.4 mph 16.1 mph N/A   Clear
12:53 PM 46.9 °F - 30.0 °F 52% 30.12 in 10.0 mi West 10.4 mph 17.3 mph N/A   Clear
1:53 PM 48.9 °F - 30.9 °F 50% 30.10 in 10.0 mi SW 10.4 mph - N/A   Scattered Clouds
2:53 PM 50.0 °F - 28.9 °F 44% 30.09 in 10.0 mi West 16.1 mph 21.9 mph N/A   Partly Cloudy
3:53 PM 53.1 °F - 28.9 °F 40% 30.07 in 10.0 mi WSW 18.4 mph 25.3 mph N/A   Clear
4:53 PM 53.1 °F - 27.0 °F 37% 30.06 in 10.0 mi WSW 17.3 mph 27.6 mph N/A   Clear
5:53 PM 53.1 °F - 25.0 °F 34% 30.04 in 10.0 mi WSW 18.4 mph 29.9 mph N/A   Clear
6:53 PM 51.1 °F - 26.1 °F 38% 30.03 in 10.0 mi SW 18.4 mph - N/A   Partly Cloudy
7:53 PM 48.9 °F - 28.9 °F 46% 30.01 in 10.0 mi SSW 10.4 mph - N/A   Mostly Cloudy
8:23 PM 46.4 °F 38.7 °F 35.6 °F 66% 30.04 in 10.0 mi WNW 20.7 mph 31.1 mph N/A   Overcast
8:53 PM 44.1 °F 37.4 °F 37.9 °F 79% 30.09 in 10.0 mi West 13.8 mph 23.0 mph 0.01 in Rain Light Rain
9:53 PM 43.0 °F 38.2 °F 39.0 °F 86% 30.09 in 10.0 mi West 8.1 mph - 0.02 in Rain Light Rain
10:53 PM 42.1 °F 36.6 °F 37.0 °F 82% 30.09 in 10.0 mi West 9.2 mph - 0.00 in   Overcast
11:53 PM 41.0 °F 33.9 °F 35.1 °F 79% 30.10 in 10.0 mi West 12.7 mph - N/A   Mostly Cloudy